STARLINK-35037, 65483

Orbit data source: Space-Track

STARLINK-35037, 65483 is a payload satellite owned by SpaceX/Seattle (US) in LEO that was launched on Wed, 03 Sep 2025 UTC via an FALCON 9 launch vehicle from the Air Force Eastern Test Range (AFETR). Payload-class satellites include a variety of spacecraft equipped with specific instruments for various scientific and technological missions. These include communications satellites like Starlink; space stations such as the ISS; scientific satellites like the Hubble; Earth observation satellites from companies like Planet Labs, Umbra, and HawkEye 360; GPS; miniature CubeSats for education and research; and military/defense satellites.

Loading next visibility...
Identifier
65483, 2025-195AB
Orbit
LEO
Country
Flag of USUS
Related business
Manufacturer
SpaceX/Seattle
Mission
Operational Commercial Communications
Bus & Motor
STARLINK V2MO, Unknown motor
Mass
575 kg wet, ~530 kg dry
Launch date (UTC)
2025-09-03 (10 months ago)
Launch vehicle
FALCON 9
Launch site
Air Force Eastern Test Range (AFETR)
Object type
Payload
Rocket body
Debris
Shape & HBR
Box + 2 Pan, 17.7 m
Radar Cross Section
36.964 m², Large (>1 m²)

Expand to show TLE details & history
Last TLE update: 16 hours ago

TLE from 16 hours ago
0 STARLINK-35037
1 65483U 25195AB  26171.22678753  .00018372  00000-0  55303-3 0  9995
2 65483  53.1595 141.0975 0001456  84.1789 275.9379 15.34430394 45687
Epoch: 2026-06-20T05:26Z
TLE epoch observation values (Epoch: 2026-06-20T05:26:34.442Z)
Latitude
-0.00007°
Longitude
151.00949°
Altitude
463.411 km
Speed
7.636 km/s
True Right ascension
09h 24m 23s
True Declination
0° 00' 00"
Sunlit
Object was in daylight at epoch
Visualization orbit readout
Latitude
Unknown
Longitude
Unknown
Altitude
Unknown
Speed
Unknown
Apparent Right ascension
Unknown
Apparent Declination
Unknown
Sunlit
N/A
Visualization observer readout
Local Sidereal Time
08:41:36
Azimuth
Unknown
Elevation
Unknown
Doppler factor
Unknown
Orbital elements
Apogee altitude
463.866 km
Perigee altitude
461.874 km
Semi-major axis
6,841.007 km
Eccentricity
0.00015
Inclination
53.1595°
RAAN
141.0975°
Arg. of periapsis
84.1789°
True anomaly
275.9213°
Mean anomaly
275.9379°
Eccentric anomaly
275.9296°
Mean motion
3.83586 °/min
Orbital period
93.85 mins
BSTAR
0.00055303
Loading maneuver chart data...
Computing Atmospheric mass density...
Loading historical data...
Loading historical data...
Loading historical data...
Loading historical data...
Loading historical data...
Loading historical data...
Loading historical data...

Documentation

Showing up to 5 results
|